[[{"header":{"parameterUnit":"m.s-1","parameterCategory":1,"la1":30.2991,"la2":30.254,"lo1":-89.0895,"lo2":-89.0444,"dy":0.0017,"dx":0.0017,"nx":28,"ny":28,"refTime":"2025-06-02T03:00:00:Z","depth":0,"parameterNumber":2,"parameterNumberName":"U-component_of_WINDS"},"data":[0,0,0,0,0,0,0,0,0,0,0,0,0,0,0,0,0,0,0,0,0,0,0,0,0,0,0,0,0,0,0,0,0,0,0,0,0,0,0,0,0,0,0,0,0,0,0,0,0,0,0,0,0,0,0,0,0,0,1.2039,1.2039,0,1.2013,1.2013,1.2012,1.1988,1.1988,1.1988,1.1987,1.1958,1.1957,1.1957,0,0,0,0,0,0,0,0,0,0,0,0,0,1.2064,1.2063,1.2039,1.2039,1.2039,1.2013,1.2013,1.2012,1.1988,1.1988,1.1988,1.1987,1.1958,1.1957,1.1957,0,0,0,0,0,0,0,0,0,0,0,0,0,1.2047,1.2063,1.2039,1.2024,1.2022,1.2013,1.2013,1.2012,1.1988,1.1988,1.1988,1.1987,1.1958,1.1957,1.1957,1.196,0,0,1.1954,1.1954,0,0,0,0,0,0,0,0,1.2048,1.2046,1.2026,1.2025,1.2023,1.2004,1.201,1.1995,1.1989,1.2001,1.1987,1.1987,1.1973,1.1971,1.1967,1.1959,1.1957,1.1954,1.1954,1.1953,1.1953,0,0,0,0,0,0,0,1.2049,1.2047,1.2029,1.2026,1.2024,1.2016,1.2013,1.2007,1.199,1.2,1.1998,1.1996,1.1972,1.1968,1.1966,1.1957,1.1954,1.1953,1.1953,1.1953,1.1945,1.1946,0,0,0,0,0,0,1.2053,1.2048,1.203,1.2028,1.2035,1.2016,1.2013,1.201,1.199,1.1986,1.1996,1.1995,1.1969,1.1967,1.1965,1.1965,1.1953,1.1952,1.1952,1.1945,1.1946,1.1946,0,0,0,0,0,0,1.2054,1.2052,1.2031,1.2037,1.2034,1.2016,1.2013,1.201,1.2006,1.1987,1.1983,1.1995,1.1969,1.1966,1.1961,1.1964,1.1952,1.1951,1.1945,1.1945,1.1946,1.1967,0,0,0,0,0,0,1.2055,1.2052,1.2055,1.2038,1.2034,1.2029,1.2014,1.201,1.2005,1.2003,1.1985,1.1982,1.1968,1.1962,1.196,1.1962,1.1951,1.1945,1.1945,1.1946,1.1966,1.1968,1.197,0,0,0,0,0,1.2055,1.2062,1.2055,1.2053,1.2037,1.2029,1.2027,1.2012,1.2005,1.2006,1.1993,1.1982,1.1964,1.1962,1.1959,1.1961,1.1944,1.1945,1.1946,1.1965,1.1968,1.197,0,0,0,0,0,0,1.208,1.206,1.2052,1.2054,1.2043,1.2025,1.2027,1.2016,1.2007,1.2005,1.1986,1.1983,1.1978,1.1969,1.1967,1.1961,1.1952,1.1952,1.1968,1.197,1.1972,1.1974,1.195,0,0,0,0,0,1.2086,1.2082,1.2064,1.2067,1.2063,1.2045,1.2041,1.2031,1.2019,1.2014,1.2001,1.1989,1.198,1.1975,1.1966,1.1964,1.1958,1.1964,1.1966,1.1968,1.1968,1.1963,1.1965,1.1948,1.1948,1.1948,0,0,1.2098,1.2086,1.2085,1.2072,1.2063,1.2057,1.2042,1.2038,1.2033,1.2013,1.2007,1.1997,1.1981,1.1977,1.1975,1.1969,1.1971,1.1969,1.197,1.1969,1.1964,1.1965,1.1967,1.1948,1.1948,1.1948,0,0,1.2116,1.2108,1.2108,1.2099,1.2084,1.2072,1.2072,1.2055,1.2047,1.2041,1.2025,1.2017,1.2004,1.1992,1.1985,1.1994,1.1982,1.1992,1.2002,1.1998,1.1999,1.2,1.2001,1.2002,1.1992,1.1992,1.1992,0,1.2132,1.2125,1.2109,1.2105,1.2098,1.208,1.2078,1.2069,1.2053,1.2048,1.2042,1.2021,1.201,1.2001,1.2003,1.1999,1.1996,1.1994,1.2,1.2001,1.2002,1.2002,1.2003,1.1993,1.1993,1.1993,1.1993,0,1.2144,1.2138,1.214,1.2124,1.2117,1.2115,1.2096,1.2091,1.208,1.2068,1.2059,1.2044,1.203,1.2027,1.2017,1.2016,1.2013,1.2004,1.1994,1.2005,1.2005,1.2005,1.1995,1.1994,1.1994,1.1994,0,0,1.2178,1.2152,1.2153,1.2143,1.2125,1.212,1.2114,1.2101,1.2095,1.2083,1.2077,1.2063,1.2054,1.2045,1.2033,1.2029,1.2034,1.202,1.2019,1.2022,1.2028,1.2034,1.2035,1.2026,1.2026,1.2026,1.2029,0,1.2192,1.2183,1.2167,1.2162,1.2155,1.2136,1.213,1.2117,1.2105,1.2095,1.2081,1.2071,1.2061,1.2055,1.205,1.2035,1.2035,1.2034,1.2017,1.2017,1.2021,1.2036,1.2043,1.2047,1.2029,1.2029,1.2029,0,1.2207,1.2196,1.219,1.2169,1.2166,1.2162,1.2146,1.2138,1.2121,1.2112,1.2101,1.2087,1.2077,1.2068,1.2053,1.2053,1.2045,1.2036,1.2035,1.2033,1.2024,1.2032,1.2048,1.2048,1.203,1.203,1.203,0,1.223,1.2214,1.2207,1.22,1.2176,1.2173,1.2163,1.2145,1.2137,1.2123,1.2117,1.2102,1.2093,1.208,1.2061,1.2057,1.2047,1.2038,1.2038,1.2038,1.2036,1.2037,1.205,1.2033,1.2033,1.2033,1.2033,0,1.2246,1.2243,1.2217,1.2213,1.2207,1.2188,1.2182,1.217,1.2154,1.2145,1.2127,1.2119,1.2095,1.2084,1.2068,1.2057,1.2053,1.2044,1.204,1.2045,1.2046,1.2039,1.2038,1.2033,1.2033,1.2033,1.2033,0,1.2271,1.2254,1.2245,1.2222,1.2216,1.2213,1.2192,1.2186,1.2172,1.2161,1.2157,1.2134,1.2119,1.2098,1.2077,1.2067,1.2056,1.2051,1.2062,1.206,1.206,1.206,1.2069,1.2068,1.2053,1.2053,1.2053,0,1.2282,1.2279,1.2255,1.2248,1.2238,1.2228,1.2219,1.2199,1.219,1.2168,1.2164,1.2148,1.2134,1.211,1.209,1.2073,1.2065,1.207,1.2063,1.2067,1.2063,1.2063,1.2062,1.2071,1.2072,1.2072,1.2072,0,1.2302,1.2293,1.2282,1.2266,1.2256,1.2243,1.2229,1.2224,1.22,1.219,1.2175,1.2164,1.2141,1.2124,1.2104,1.209,1.2076,1.2074,1.2073,1.2078,1.2084,1.2079,1.2066,1.2074,1.2074,1.2074,1.2074,1.2074,1.2319,1.2314,1.2296,1.2283,1.227,1.2256,1.2249,1.2233,1.222,1.22,1.2189,1.2173,1.2152,1.2124,1.2111,1.2097,1.2091,1.209,1.209,1.2089,1.209,1.2087,1.2093,1.2093,1.2093,1.2093,1.2093,0,1.2336,1.2323,1.2312,1.2292,1.2281,1.2269,1.2252,1.2243,1.223,1.2212,1.2198,1.2179,1.2161,1.214,1.212,1.2113,1.2105,1.2108,1.2108,1.2105,1.2097,1.2099,1.2114,1.2114,1.2114,1.2114,1.2114,1.2114,1.2344,1.2334,1.2323,1.2305,1.2292,1.2277,1.2268,1.2254,1.224,1.2219,1.2205,1.2191,1.2171,1.2149,1.2132,1.2125,1.2118,1.2123,1.2114,1.2107,1.2106,1.2104,1.2106,1.2122,1.2122,1.2123,1.2123,1.2123]},{"header":{"parameterUnit":"m.s-1","parameterCategory":1,"la1":30.2991,"la2":30.254,"lo1":-89.0895,"lo2":-89.0444,"dy":0.0017,"dx":0.0017,"nx":28,"ny":28,"refTime":"2025-06-02T03:00:00:Z","depth":0,"parameterNumber":3,"parameterNumberName":"V-component_of_WINDS"},"data":[0,0,0,0,0,0,0,0,0,0,0,0,0,0,0,0,0,0,0,0,0,0,0,0,0,0,0,0,0,0,0,0,0,0,0,0,0,0,0,0,0,0,0,0,0,0,0,0,0,0,0,0,0,0,0,0,0,0,1.7698,1.77,0,1.7816,1.7817,1.7818,1.7839,1.7838,1.7837,1.7836,1.7951,1.7955,1.7959,0,0,0,0,0,0,0,0,0,0,0,0,0,1.7485,1.7489,1.7698,1.77,1.7701,1.7815,1.7817,1.7819,1.7839,1.7838,1.7836,1.7835,1.795,1.7954,1.7959,0,0,0,0,0,0,0,0,0,0,0,0,0,1.7587,1.749,1.7698,1.7725,1.7729,1.7815,1.7817,1.7819,1.7839,1.7838,1.7836,1.7835,1.7948,1.7954,1.796,1.8026,0,0,1.7978,1.798,0,0,0,0,0,0,0,0,1.7581,1.7595,1.772,1.7723,1.7728,1.7811,1.7784,1.7888,1.7839,1.7797,1.7836,1.7834,1.7905,1.7915,1.794,1.8031,1.8036,1.7978,1.7982,1.7985,1.7986,0,0,0,0,0,0,0,1.7574,1.759,1.7745,1.7721,1.7726,1.7729,1.7742,1.7804,1.7858,1.7801,1.7802,1.7816,1.7907,1.7934,1.7942,1.8038,1.7978,1.7984,1.7987,1.799,1.8186,1.8187,0,0,0,0,0,0,1.7563,1.7584,1.7741,1.7748,1.765,1.7734,1.7749,1.7786,1.7857,1.7867,1.7817,1.7817,1.7924,1.7936,1.7947,1.8027,1.7985,1.799,1.7994,1.8184,1.8186,1.8188,0,0,0,0,0,0,1.7558,1.7577,1.7736,1.7667,1.7687,1.774,1.7781,1.7789,1.7816,1.787,1.7879,1.7835,1.7924,1.7938,1.8006,1.8031,1.7993,1.7998,1.8182,1.8185,1.8187,1.8189,0,0,0,0,0,0,1.7552,1.7575,1.7603,1.7667,1.7691,1.7795,1.7783,1.7792,1.7827,1.7827,1.7889,1.7898,1.7924,1.7997,1.8011,1.8039,1.8003,1.818,1.8183,1.8186,1.8187,1.8191,1.8195,0,0,0,0,0,1.7545,1.7598,1.7604,1.7623,1.7727,1.7797,1.781,1.784,1.7829,1.7855,1.7889,1.7896,1.8026,1.8003,1.802,1.805,1.8179,1.8182,1.8186,1.8185,1.819,1.8195,0,0,0,0,0,0,1.7534,1.7607,1.7615,1.7691,1.7738,1.78,1.7835,1.7845,1.7895,1.7893,1.7926,1.794,1.8005,1.8034,1.8007,1.8116,1.8101,1.8108,1.8095,1.81,1.8104,1.8096,1.8008,0,0,0,0,0,1.7541,1.7594,1.7654,1.7716,1.7739,1.7783,1.7814,1.7833,1.7882,1.7902,1.7941,1.7987,1.8037,1.807,1.812,1.8191,1.8203,1.8219,1.8223,1.8226,1.8232,1.8269,1.8276,1.82,1.82,1.82,0,0,1.7556,1.7602,1.7633,1.7715,1.7753,1.7805,1.7799,1.7855,1.7893,1.791,1.7976,1.8006,1.8058,1.8127,1.8159,1.8153,1.8255,1.8231,1.8233,1.8237,1.8273,1.828,1.8287,1.8202,1.8202,1.8202,0,0,1.7608,1.765,1.7705,1.7743,1.7801,1.783,1.7842,1.7903,1.7924,1.7991,1.8004,1.8048,1.8136,1.8172,1.8202,1.8265,1.8272,1.828,1.8301,1.8337,1.8343,1.8348,1.8369,1.8376,1.8286,1.8286,1.8286,0,1.7619,1.7699,1.7731,1.7786,1.782,1.7838,1.7892,1.7927,1.7998,1.802,1.8013,1.8121,1.8158,1.8234,1.825,1.8274,1.8287,1.8274,1.834,1.8345,1.8351,1.8371,1.8379,1.8286,1.8286,1.8286,1.8286,0,1.7708,1.7763,1.78,1.7869,1.7907,1.7961,1.7999,1.8033,1.8047,1.8076,1.8142,1.8186,1.8244,1.8264,1.8278,1.8341,1.8335,1.8333,1.8319,1.8358,1.8377,1.8386,1.8287,1.8287,1.8287,1.8287,0,0,1.776,1.7844,1.7857,1.7887,1.7951,1.7994,1.8046,1.8105,1.8132,1.818,1.8224,1.8296,1.8294,1.8328,1.8346,1.8377,1.8421,1.8371,1.8373,1.8378,1.8491,1.8491,1.85,1.8426,1.8428,1.8429,1.8486,0,1.7819,1.7917,1.7946,1.8027,1.8077,1.8093,1.8139,1.8182,1.8209,1.8253,1.8282,1.8332,1.8326,1.8347,1.8378,1.841,1.8444,1.8406,1.8465,1.8467,1.8451,1.8511,1.8512,1.8564,1.8494,1.8495,1.8496,0,1.7903,1.7952,1.8039,1.8094,1.8116,1.8157,1.8211,1.8254,1.8301,1.8318,1.8355,1.837,1.8423,1.8406,1.8478,1.8451,1.8476,1.8495,1.8497,1.8504,1.8484,1.8517,1.8581,1.8588,1.8508,1.8507,1.8507,0,1.793,1.8018,1.8081,1.8106,1.8173,1.8201,1.8229,1.8276,1.8308,1.8354,1.8374,1.8426,1.8453,1.8491,1.8518,1.8504,1.8587,1.8573,1.8601,1.86,1.8618,1.8617,1.8686,1.8635,1.8635,1.8635,1.8635,0,1.7993,1.8045,1.8094,1.8132,1.8189,1.822,1.8275,1.8304,1.8345,1.8387,1.8403,1.8442,1.8476,1.8519,1.854,1.8595,1.8607,1.8621,1.8626,1.8619,1.8617,1.8636,1.8633,1.8637,1.8637,1.8636,1.8636,0,1.8034,1.8069,1.8138,1.8195,1.821,1.825,1.8297,1.8334,1.836,1.8413,1.8427,1.8468,1.8519,1.855,1.8614,1.8628,1.8688,1.8692,1.8673,1.8675,1.8701,1.8697,1.8784,1.8796,1.8738,1.8739,1.8739,0,1.8072,1.8113,1.8174,1.8204,1.8233,1.8282,1.8314,1.8344,1.8377,1.8433,1.8462,1.8513,1.8557,1.8636,1.867,1.8718,1.8723,1.875,1.873,1.8721,1.8722,1.8719,1.8722,1.8753,1.8753,1.8754,1.8754,0,1.8136,1.815,1.8198,1.8251,1.829,1.8332,1.8375,1.8398,1.8434,1.847,1.8523,1.8556,1.8621,1.8671,1.8721,1.8748,1.8756,1.876,1.8769,1.8762,1.8749,1.8755,1.8681,1.8758,1.8758,1.8757,1.8757,1.8757,1.8176,1.8212,1.826,1.8311,1.8346,1.8385,1.8421,1.8452,1.8497,1.8553,1.8567,1.8621,1.8664,1.8733,1.8761,1.8802,1.8797,1.8811,1.8814,1.8817,1.8816,1.8743,1.8811,1.8811,1.8811,1.8811,1.8811,0,1.8239,1.8271,1.8318,1.8376,1.8416,1.8421,1.8467,1.85,1.8548,1.8588,1.863,1.8688,1.8736,1.8773,1.8822,1.8847,1.8852,1.8859,1.8857,1.8863,1.8818,1.8805,1.8854,1.8854,1.8854,1.8854,1.8854,1.8854,1.8277,1.8337,1.8357,1.8433,1.8463,1.8518,1.8543,1.8578,1.861,1.8675,1.8715,1.8739,1.8777,1.8828,1.8871,1.8881,1.8897,1.8903,1.8913,1.8871,1.8866,1.8862,1.8849,1.8907,1.8907,1.8954,1.8954,1.8955]}]]